STARLINK-5739, 55571

Orbit data source: Space-Track

STARLINK-5739, 55571 is a payload satellite owned by SpaceX/Seattle (US) in LEO that was launched on Sun, 12 Feb 2023 UTC via an FALCON 9 launch vehicle from the Air Force Eastern Test Range (AFETR). Payload-class satellites include a variety of spacecraft equipped with specific instruments for various scientific and technological missions. These include communications satellites like Starlink; space stations such as the ISS; scientific satellites like the Hubble; Earth observation satellites from companies like Planet Labs, Umbra, and HawkEye 360; GPS; miniature CubeSats for education and research; and military/defense satellites.

Loading next visibility...
Identifier
55571, 2023-020C
Orbit
LEO
Country
Flag of USUS
Related business
Manufacturer
SpaceX/Seattle
Mission
Operational spacecraft
Bus & Motor
STARLINK, Unknown motor
Mass
305 kg wet, ~290 kg dry
Launch date (UTC)
2023-02-12 (3 years ago)
Launch vehicle
FALCON 9
Launch site
Air Force Eastern Test Range (AFETR)
Object type
Payload
Rocket body
Debris
Shape & HBR
Unknown shape, 10.1 m
Radar Cross Section
Large (>1 m²)

Expand to show TLE details & history
Last TLE update: 15 hours ago

TLE from 15 hours ago
0 STARLINK-5739
1 55571U 23020C   25340.54141045  .00003108  00000-0  24491-3 0  9993
2 55571  43.0024 151.1021 0001399 272.8431  87.2251 15.02553753154908
Epoch: 2025-12-06T12:59Z
TLE epoch observation values (Epoch: 2025-12-06T12:59:37.862Z)
Latitude
-0.00005°
Longitude
-119.37338°
Altitude
558.756 km
Speed
7.584 km/s
True Right ascension
10h 04m 24s
True Declination
0° 00' 00"
Sunlit
Object was in daylight at epoch
Visualization orbit readout
Latitude
Unknown
Longitude
Unknown
Altitude
Unknown
Speed
Unknown
Apparent Right ascension
Unknown
Apparent Declination
Unknown
Sunlit
N/A
Visualization observer readout
Local Sidereal Time
02:04:57
Azimuth
Unknown
Elevation
Unknown
Doppler factor
Unknown
Orbital elements
Apogee altitude
561.919 km
Perigee altitude
559.978 km
Semi-major axis
6,939.085 km
Eccentricity
0.00014
Inclination
43.0024°
RAAN
151.1021°
Arg. of periapsis
272.8431°
True anomaly
87.24111°
Mean anomaly
87.2251°
Eccentric anomaly
87.23311°
Mean motion
3.75483 °/min
Orbital period
95.88 mins
BSTAR
0.00024491
Loading maneuver chart data...
Computing Atmospheric mass density...
Loading historical data...
Loading historical data...
Loading historical data...
Loading historical data...
Loading historical data...
Loading historical data...
Loading historical data...

Documentation

Showing up to 5 results
|